Wind_Speed
72 73 73 73 73 72 72 71 71 71 71 71 71 72 73 73 74 75 76 76 77 77 77 77 77 77 77 77 77 78 79 80 81 82 83 84 85 86 87 88 90 91 92 93 94 94 95 95 95 96 97 99 100 101 102 102 102 102 103 103 105 107 109 111 111 110 109 108 108 109 108 108 108 107 105 104 103 102 102 102 103 103 103 102 102 102 102 102
70 69 69 69 70 70 70 70 69 70 70 70 70 71 72 73 74 74 75 75 76 76 76 76 76 75 75 75 76 76 77 78 79 80 81 82 83 84 85 86 87 88 89 90 91 91 92 92 93 94 95 95 96 96 96 97 97 97 98 99 101 104 106 108 108 107 106 105 106 107 107 107 107 107 106 104 103 102 101 102 102 102 102 102 101 102 101 102
66 66 67 67 67 67 67 68 68 68 68 69 70 70 71 72 72 73 74 74 75 75 75 75 75 75 75 75 75 75 76 77 78 79 80 80 81 82 83 84 85 85 86 87 88 88 89 90 91 92 92 92 92 93 92 93 94 94 94 95 98 100 101 102 102 102 101 101 101 102 102 103 103 104 104 103 102 101 100 101 101 101 101 100 100 101 101 102
59 60 62 63 64 65 65 65 66 66 67 68 68 69 69 70 71 71 72 73 73 74 74 74 74 74 75 75 75 76 76 77 78 78 79 80 80 81 82 83 83 84 84 85 86 86 87 88 89 90 90 90 90 90 90 91 91 90 91 93 95 96 96 97 98 98 97 96 96 97 97 98 99 99 100 99 99 98 98 98 98 98 98 98 99 99 100 102
54 55 56 58 59 60 61 62 63 64 64 65 66 66 67 68 69 70 70 71 72 72 73 73 73 73 74 74 75 75 75 76 77 78 78 79 80 80 81 82 82 83 83 84 85 85 86 87 88 88 88 88 88 89 89 89 88 88 91 92 92 93 93 94 95 95 94 93 92 92 93 94 95 95 95 95 95 95 95 95 95 96 96 96 97 97 99 100
51 52 53 55 56 57 58 59 60 61 62 63 64 65 65 66 67 68 69 69 69 70 70 69 69 68 69 69 70 70 70 70 72 73 74 75 76 77 78 79 80 81 82 83 84 85 85 86 87 87 87 88 88 89 88 88 89 90 91 92 91 91 92 93 93 93 92 91 90 90 91 92 92 91 91 91 92 92 92 92 93 93 93 94 94 95 96 95
51 52 53 55 56 57 57 58 59 60 61 61 62 63 63 64 64 64 64 64 64 63 62 61 61 60 61 61 61 61 61 62 63 64 65 67 69 70 71 73 74 76 77 79 80 82 83 84 85 86 87 88 89 89 89 90 90 91 92 92 91 91 92 92 93 93 92 91 89 89 89 89 89 89 88 88 89 89 90 90 90 90 90 91 92 92 91 90
52 53 54 56 56 57 57 58 58 59 59 59 59 59 59 59 59 58 57 57 56 55 54 53 52 52 52 52 52 53 53 54 55 55 56 58 59 61 62 63 65 67 69 71 73 75 77 78 80 83 84 86 88 89 89 89 90 91 91 91 90 91 91 91 92 93 92 91 89 88 88 88 88 87 87 87 87 88 88 88 88 88 88 89 89 88 87 88
53 54 55 56 56 56 56 56 56 55 55 54 54 53 53 52 51 51 50 50 49 48 47 46 45 45 45 45 45 46 46 47 47 48 49 50 51 52 53 55 57 58 60 62 64 66 68 70 73 76 78 80 82 82 83 84 86 87 88 88 89 90 90 90 91 92 91 90 89 87 87 87 87 86 86 86 86 86 86 86 86 86 86 86 86 86 86 88
53 54 54 54 54 53 53 52 51 50 49 49 48 47 46 46 45 44 44 44 43 42 41 40 40 40 39 39 39 40 40 41 41 42 43 43 45 46 47 48 50 51 52 54 56 58 60 62 64 67 68 70 71 73 75 77 78 80 81 83 84 85 86 86 87 88 89 88 87 86 86 86 85 85 85 86 85 85 85 85 85 85 84 84 84 85 86 87
52 51 51 50 50 49 48 46 45 45 44 43 42 41 41 41 40 40 39 38 38 37 36 35 35 35 35 35 35 35 36 36 37 38 38 39 40 41 42 43 44 45 47 48 49 51 52 54 56 58 59 61 62 64 66 68 70 72 73 75 77 79 80 80 82 83 84 84 84 84 83 83 83 83 83 82 82 82 82 82 83 82 82 82 83 84 86 86
48 47 46 46 45 44 43 42 41 40 40 39 38 38 38 38 37 36 35 35 34 33 32 32 33 33 33 33 33 33 33 34 34 35 36 36 37 38 39 39 40 41 42 43 44 46 47 49 50 51 52 54 55 57 59 60 62 64 66 68 70 72 73 74 75 76 78 78 79 79 78 78 78 77 77 78 78 79 79 80 80 80 81 81 83 84 85 86
43 43 42 41 41 40 39 39 38 38 38 37 36 36 36 36 35 35 34 33 32 32 31 32 33 33 33 33 33 32 32 32 32 33 34 34 35 36 37 37 38 38 39 40 41 42 43 45 46 46 47 48 49 51 53 54 56 57 59 62 63 65 67 68 69 71 72 73 73 73 72 72 72 72 73 74 75 76 77 78 79 79 80 81 82 83 84 84
40 39 39 38 38 38 38 38 38 38 37 36 36 36 36 36 36 35 34 34 33 33 33 33 34 34 34 34 33 33 32 32 32 33 33 33 34 35 35 36 36 36 37 37 38 39 40 41 42 43 43 44 45 47 48 50 50 51 53 55 57 59 61 62 63 65 66 67 67 67 66 67 68 69 70 71 72 73 74 75 76 77 78 79 80 81 81 81
37 37 37 37 37 37 37 38 38 38 37 36 36 36 36 36 36 36 36 35 35 34 34 34 35 35 35 35 34 33 33 33 33 33 34 34 34 34 34 35 35 36 36 36 37 38 39 39 40 40 40 42 43 44 45 45 46 47 48 50 51 52 54 56 57 58 60 60 60 61 61 62 63 63 65 66 67 69 70 70 71 72 74 76 76 76 76 77
35 35 35 36 36 37 37 38 38 38 38 37 36 36 36 37 37 37 37 37 36 36 35 35 36 36 35 36 35 35 35 35 35 35 35 35 35 35 35 35 35 36 36 37 37 38 38 39 39 40 40 41 42 42 42 43 43 44 45 45 46 47 48 50 51 52 53 54 54 54 54 56 55 55 58 59 60 62 63 64 65 67 68 70 70 70 70 71
34 35 35 35 36 36 37 38 38 38 38 37 37 36 37 38 38 38 38 38 37 37 37 37 38 37 37 37 36 36 36 37 37 37 37 37 36 36 36 37 37 37 37 37 38 38 38 39 40 40 41 41 42 42 42 42 43 43 42 43 43 43 44 46 46 47 48 49 49 48 47 49 48 48 51 53 54 56 57 59 60 61 62 63 63 63 64 65
34 34 35 35 36 36 36 37 37 37 37 38 37 37 38 38 39 39 39 39 39 39 39 39 39 38 38 37 37 38 38 39 39 39 39 39 38 38 39 39 39 39 39 39 39 39 40 41 41 41 41 41 41 41 41 42 42 42 42 42 42 42 42 42 42 42 44 44 44 43 43 44 43 42 44 46 48 50 51 53 54 55 56 56 56 56 57 58
33 34 34 35 35 35 36 36 36 37 37 38 38 38 38 39 39 40 40 40 40 40 40 40 40 39 38 38 38 39 40 40 40 40 40 40 40 40 40 41 41 41 40 40 40 40 42 43 43 43 42 41 41 41 42 42 43 43 43 43 43 42 41 41 40 39 40 41 41 40 40 40 38 37 38 40 41 43 45 46 47 48 49 49 50 50 51 52
34 34 34 35 35 35 35 36 36 37 37 38 38 38 38 39 39 40 40 39 40 40 40 40 40 39 39 38 39 39 39 40 40 40 40 40 40 41 41 41 42 41 41 40 41 43 44 45 45 43 41 41 42 43 44 44 44 45 45 45 44 43 42 41 40 39 38 38 39 38 37 36 35 34 34 34 35 36 38 40 41 42 43 44 44 45 45 46
34 34 34 35 35 35 35 36 36 37 37 38 38 38 38 39 40 40 39 39 40 40 40 40 40 39 38 38 39 38 38 38 38 38 39 39 39 40 40 41 41 41 41 42 43 45 46 46 45 43 42 43 44 45 46 46 46 46 46 46 46 45 44 43 41 40 38 38 38 37 35 34 32 32 32 32 33 33 34 35 35 36 37 39 40 40 41 42
34 34 34 34 34 35 35 35 35 36 36 36 37 37 37 38 39 39 39 39 39 39 39 39 39 38 37 37 37 36 36 35 35 35 36 36 37 37 38 38 39 40 41 42 43 44 46 46 44 44 44 45 45 46 47 47 47 47 48 48 48 47 46 45 43 41 40 39 39 38 36 35 33 33 33 33 33 33 32 32 32 33 34 35 36 37 38 39
35 35 35 34 34 34 34 34 34 34 34 34 35 35 36 36 36 37 37 38 38 38 38 38 37 36 36 35 35 35 34 34 33 33 34 34 34 34 34 35 35 36 37 38 39 42 43 44 43 44 45 45 46 47 47 48 48 48 49 49 49 48 47 46 44 43 42 40 40 40 39 38 37 37 37 36 35 34 32 31 31 31 32 33 33 34 36 38
36 36 36 35 35 34 34 34 34 34 34 34 34 35 35 35 35 36 36 37 37 37 37 37 37 35 35 35 35 35 34 34 34 34 33 33 33 33 32 33 33 33 33 34 36 38 40 40 41 43 44 45 46 47 48 49 49 49 49 50 50 49 48 48 47 45 44 42 42 42 42 41 41 41 42 40 39 37 34 32 32 32 32 32 31 32 34 36
38 38 37 37 36 35 35 35 35 35 35 35 35 35 36 36 36 36 36 36 37 37 37 37 36 36 35 35 35 35 35 35 35 35 34 34 34 34 33 34 34 32 32 33 35 37 37 37 37 39 41 42 43 45 48 48 49 49 50 50 50 49 49 49 48 47 46 44 44 44 44 43 44 45 45 44 43 41 38 35 34 34 34 33 32 32 33 35
40 40 39 39 38 38 37 37 37 37 37 37 37 37 37 37 38 37 38 38 38 38 37 37 37 37 36 36 36 36 36 36 36 36 36 36 36 36 36 36 35 34 33 34 36 38 37 35 35 36 37 38 40 43 45 46 47 48 49 49 49 49 49 49 49 48 47 46 45 46 45 45 46 48 48 47 46 45 42 40 38 36 35 34 34 35 35 37
41 41 41 41 41 40 40 40 40 39 39 40 40 40 40 40 40 40 40 40 40 39 39 39 39 39 38 38 38 37 36 37 37 38 38 38 38 38 38 38 38 36 36 37 38 39 38 36 35 36 36 37 39 41 42 42 44 46 47 48 47 48 48 48 48 48 47 47 47 47 47 46 47 50 51 49 48 48 46 43 41 40 39 37 37 38 39 41
43 43 43 43 43 43 43 43 42 42 42 42 42 42 42 42 42 42 42 42 42 42 42 42 41 41 41 41 40 39 39 38 38 39 39 40 41 40 40 41 40 39 39 39 41 42 41 39 37 37 38 39 40 42 42 41 42 44 44 45 45 46 47 47 48 48 48 48 48 49 48 48 47 50 52 50 50 50 48 45 44 42 41 41 42 42 43 44
45 45 45 46 46 46 46 45 45 45 45 45 44 44 44 44 44 44 44 44 44 44 44 44 43 43 43 43 42 42 42 41 41 41 41 42 42 42 42 43 43 42 41 42 43 43 43 42 40 41 42 43 43 43 43 43 44 44 43 43 44 44 45 46 47 48 48 47 49 49 49 50 49 49 52 52 51 50 48 47 47 45 44 44 45 46 46 48
47 47 47 48 48 48 48 48 47 46 46 46 46 46 46 46 46 46 45 46 46 46 46 45 45 45 45 45 45 45 45 44 43 43 43 43 44 44 44 44 44 44 43 44 44 44 44 44 44 44 45 45 45 46 46 46 46 46 46 46 46 45 45 46 46 47 46 46 48 50 50 50 50 51 53 52 52 51 49 49 48 47 46 46 46 47 49 51
49 49 49 49 50 50 49 49 48 48 48 48 47 47 47 47 48 48 48 47 48 48 47 47 47 47 47 47 47 47 47 46 45 45 45 45 46 46 46 46 46 45 45 45 46 46 45 46 47 48 49 48 48 49 50 50 50 49 49 50 50 49 48 48 48 48 47 47 49 49 50 50 50 52 53 52 53 53 52 51 50 49 48 47 46 48 50 51
50 50 50 50 51 51 50 50 50 49 49 49 49 48 48 49 50 49 49 49 49 50 49 49 49 48 48 48 48 48 47 47 47 47 46 47 47 47 47 47 47 47 46 46 46 48 47 47 48 50 51 51 51 52 53 53 53 52 52 53 53 52 52 52 52 52 51 51 50 50 50 50 50 52 52 52 53 54 53 53 52 51 50 49 49 50 52 53
51 51 51 51 52 52 52 52 51 51 51 50 50 50 50 51 51 51 51 51 51 51 50 50 49 48 48 48 49 48 47 48 48 48 47 48 48 48 48 48 47 47 48 47 47 49 50 49 50 51 53 54 54 55 56 55 55 55 55 55 56 56 55 55 55 55 55 55 53 52 53 52 52 52 52 53 53 52 53 54 53 53 52 52 52 52 53 55
53 52 52 53 53 53 53 53 52 52 52 51 51 51 51 51 52 52 51 51 50 50 50 50 49 48 48 48 48 48 47 48 48 48 48 49 49 50 49 49 48 48 49 49 49 50 51 52 52 53 54 55 57 58 57 57 57 57 57 57 57 58 58 57 57 57 57 57 56 55 56 56 55 55 55 55 54 53 54 54 54 54 54 53 53 54 54 56
54 54 54 54 54 54 54 54 54 53 53 52 51 51 50 50 50 50 50 49 48 48 48 48 48 47 47 47 48 47 47 47 48 48 48 49 50 50 50 50 50 50 50 50 50 51 52 53 54 55 56 57 59 59 59 59 59 59 58 58 59 60 60 59 60 59 59 59 58 58 59 59 58 58 58 58 57 56 57 56 56 56 56 55 55 55 55 56
53 54 54 54 54 54 54 54 53 53 52 51 50 48 48 48 48 47 47 47 46 46 46 46 46 46 46 46 47 46 46 46 47 48 49 49 50 50 50 51 51 51 51 51 52 52 53 55 56 57 57 58 60 61 60 61 61 60 60 60 61 61 62 62 62 62 62 61 60 60 61 62 60 60 61 61 60 61 61 60 59 59 59 59 58 58 58 59
52 52 52 52 53 52 52 52 51 50 50 48 47 46 46 46 45 46 46 45 45 45 44 44 45 45 45 45 46 46 46 46 47 49 49 49 50 50 50 51 52 52 52 53 53 53 54 55 57 58 58 59 60 61 61 61 61 61 61 61 61 62 63 63 63 63 62 62 62 61 63 64 63 62 63 63 64 64 64 62 61 61 61 62 61 61 61 62
52 51 52 52 52 51 51 50 49 49 48 47 46 46 45 45 44 45 46 45 44 43 43 43 44 45 45 45 46 46 46 46 47 49 49 49 49 50 50 51 52 53 53 54 55 55 54 55 56 58 58 58 58 59 59 60 60 60 60 60 60 61 61 61 61 62 61 62 62 62 63 65 65 65 65 65 66 66 65 64 63 63 63 64 64 63 63 64
53 52 53 53 52 52 51 50 50 49 48 48 47 46 45 44 45 46 46 45 44 43 43 43 44 45 46 46 46 47 47 47 48 49 50 50 50 50 51 52 52 53 53 53 54 54 53 53 54 55 56 56 56 56 57 57 56 56 57 57 57 58 58 58 58 58 58 58 58 59 60 62 64 66 65 65 65 66 65 65 64 65 65 65 66 66 65 65
53 53 53 54 53 52 52 51 51 50 50 49 48 47 46 45 45 46 46 46 45 44 44 44 45 45 46 47 47 48 49 49 50 50 51 51 51 50 50 51 51 51 52 52 52 52 51 51 51 52 53 54 54 54 55 55 54 53 53 53 54 54 55 55 55 54 54 55 54 54 55 58 60 62 62 62 61 61 62 63 63 63 64 64 65 65 65 66
50 52 53 54 53 53 52 52 52 51 51 51 50 48 47 46 46 47 47 47 46 46 46 46 46 47 48 49 50 50 51 51 51 51 51 50 50 49 49 49 50 50 51 51 51 50 49 49 48 49 51 52 52 53 53 54 54 54 53 52 52 53 53 53 53 53 52 52 52 51 52 53 56 58 59 59 58 57 58 58 59 60 61 62 62 63 63 63
47 49 51 52 52 52 52 52 52 52 52 52 51 50 49 48 47 48 48 48 47 47 47 48 49 50 50 51 51 52 52 52 51 51 50 49 49 49 48 49 49 50 50 51 50 49 49 48 47 48 50 51 51 52 52 53 54 55 55 54 53 53 53 54 53 53 52 51 50 50 50 52 54 56 57 57 58 57 57 57 58 59 61 61 62 62 62 62
43 45 46 48 49 49 50 50 51 52 52 52 52 51 50 49 48 49 49 49 49 49 49 50 51 52 52 52 52 52 51 50 49 49 49 49 48 49 49 49 49 49 49 50 50 50 49 48 47 48 49 50 50 51 52 53 54 55 57 56 56 55 55 55 55 54 53 51 51 52 51 52 56 59 58 58 58 59 59 59 60 61 62 63 63 63 63 62
39 40 42 44 45 46 46 47 48 50 50 51 51 51 50 50 49 49 50 50 50 50 51 52 52 52 52 52 51 50 49 49 48 49 49 49 49 49 48 49 49 49 49 49 49 49 50 49 48 48 48 49 50 51 52 54 55 56 56 57 58 58 58 57 57 57 55 53 54 54 53 54 58 60 60 60 60 60 60 61 61 62 63 64 64 64 63 63
34 36 37 40 42 42 43 43 45 47 48 49 49 49 49 49 49 50 50 51 51 51 51 51 51 52 51 51 50 49 48 48 48 48 49 49 49 49 48 49 49 49 49 50 50 50 51 50 49 49 48 48 49 51 53 54 56 56 57 58 59 60 60 60 60 60 58 57 57 56 56 58 60 60 61 62 62 62 62 62 62 63 65 65 65 65 65 64
33 33 34 36 38 39 39 40 42 44 45 46 47 47 48 49 49 49 50 50 50 50 50 50 50 50 50 50 50 49 48 48 48 47 47 48 48 49 49 50 51 51 51 51 52 52 52 51 50 49 48 48 49 51 53 55 56 57 58 59 60 61 62 63 63 62 62 62 60 59 61 63 62 63 63 63 62 62 63 64 64 64 66 67 67 67 67 66
33 34 34 35 36 37 37 38 39 41 42 44 44 45 46 47 48 48 48 48 48 49 48 48 49 49 49 49 49 49 48 48 47 46 46 46 48 49 51 52 54 54 54 54 53 53 52 52 51 51 50 51 51 53 55 56 57 59 60 60 61 63 64 65 65 65 65 65 61 61 66 66 65 66 66 64 64 65 65 65 65 65 66 68 68 68 68 68
32 33 33 34 35 36 37 38 38 39 41 42 42 43 44 46 46 46 46 46 47 47 47 47 48 48 48 48 48 48 47 47 46 46 47 47 49 51 53 55 56 56 56 55 54 54 54 53 53 53 53 54 56 56 57 58 59 60 61 62 63 65 66 66 67 67 68 67 63 64 69 68 67 69 69 67 68 68 68 68 68 68 68 68 68 69 69 70
32 33 33 33 33 34 36 37 38 39 40 41 42 43 44 45 46 46 46 46 46 47 47 47 47 47 47 47 47 47 47 47 47 48 48 50 51 53 55 57 57 58 58 57 57 57 57 56 57 56 56 57 59 60 60 61 61 61 62 63 65 66 67 68 68 69 70 70 67 68 70 69 69 71 71 71 71 70 71 70 70 70 70 69 69 69 70 71
35 35 35 35 34 34 35 36 37 38 39 40 41 42 44 45 46 45 45 45 45 45 46 46 45 45 45 46 46 47 47 48 49 50 51 52 54 55 57 58 59 60 61 61 61 61 60 60 60 60 59 58 61 63 63 63 64 63 63 65 66 67 68 69 70 71 72 71 70 72 70 67 70 73 73 72 72 72 72 72 71 71 70 70 70 70 70 71
37 37 38 38 37 37 37 37 37 37 38 39 40 41 42 43 44 44 44 43 43 43 44 44 44 44 46 47 48 49 50 50 52 53 54 55 56 58 59 60 61 63 64 65 65 64 63 63 62 63 61 59 62 65 65 66 66 63 62 65 67 68 68 69 70 71 72 72 72 73 70 68 72 76 75 73 73 74 74 74 73 72 72 72 72 72 72 72
39 39 39 40 40 40 40 40 40 40 40 40 40 41 42 43 43 44 44 43 43 44 44 45 46 47 49 50 51 53 53 54 55 56 56 57 58 60 61 63 64 65 66 67 68 67 67 66 65 66 64 61 64 66 67 68 65 60 60 65 69 70 69 69 70 71 73 74 75 74 73 73 75 77 77 77 76 75 75 75 75 75 75 74 73 73 73 73
Wind_Direction
257 257 258 258 258 258 258 259 259 260 260 261 261 262 262 263 264 264 264 265 265 264 264 263 263 262 262 261 261 260 260 260 259 259 258 258 257 257 257 256 256 256 256 256 257 257 257 257 257 257 258 258 258 259 259 260 260 260 261 261 261 261 261 262 262 263 263 264 264 265 266 266 267 267 267 267 267 267 268 268 268 269 269 270 270 270 270 271
257 257 257 257 258 258 258 258 259 259 260 260 261 262 262 263 263 264 264 264 264 264 264 264 264 263 263 262 261 261 260 260 259 259 258 258 257 257 257 256 256 256 256 256 256 256 257 257 257 257 257 257 258 258 259 259 259 260 260 260 260 261 261 262 262 263 263 263 264 264 265 265 266 266 266 266 267 267 267 267 267 268 268 268 269 269 270 270
257 257 257 257 258 258 258 258 259 259 260 260 261 262 262 263 263 264 264 264 264 265 265 265 264 264 263 263 262 262 261 260 259 259 258 258 257 257 257 256 256 256 256 256 256 256 256 256 256 256 256 257 257 258 258 258 259 259 259 259 260 261 261 262 262 262 262 263 263 263 264 264 265 265 265 266 266 266 266 266 266 267 267 268 268 268 269 269
258 258 258 258 258 258 258 259 259 259 260 261 261 262 262 263 263 264 264 265 265 265 265 265 265 265 264 264 263 262 261 261 260 259 259 258 258 257 257 256 256 256 255 255 255 255 255 255 255 256 256 256 257 257 257 258 258 258 258 258 259 260 260 261 261 262 262 262 262 263 263 264 264 265 265 265 265 265 265 266 266 266 267 267 267 267 268 268
258 258 258 259 259 259 259 259 260 260 261 261 262 262 263 263 264 264 265 265 265 266 266 266 266 266 265 264 263 263 262 261 260 260 259 258 258 257 257 256 256 255 255 255 255 254 254 255 255 255 256 256 256 256 256 257 257 257 257 257 258 259 259 260 261 261 262 262 262 263 263 264 264 264 265 265 266 266 266 266 266 266 266 266 267 267 268 269
258 259 259 259 259 260 260 260 261 261 261 262 262 263 263 264 264 265 265 266 266 266 266 266 266 266 265 264 264 263 262 261 260 260 259 258 258 257 257 256 256 255 255 255 254 254 254 254 254 255 255 255 255 255 256 256 256 256 256 257 258 258 259 260 261 262 262 262 262 263 263 264 264 265 265 266 266 266 266 266 266 266 267 267 267 268 269 270
259 260 260 260 261 261 261 261 262 262 262 263 263 264 264 264 265 265 265 266 266 266 266 266 265 265 264 264 264 263 262 261 261 260 259 259 258 257 257 257 256 256 255 255 254 254 254 254 254 254 254 254 254 254 254 255 255 256 257 257 258 259 260 260 261 261 261 261 262 262 263 264 264 265 265 265 266 266 266 267 267 267 268 268 269 269 270 270
260 260 261 261 261 262 262 262 263 263 263 263 264 264 264 264 264 265 265 265 265 265 265 264 264 264 263 263 263 263 262 262 261 260 260 259 259 258 257 256 256 256 255 255 254 254 254 253 253 253 253 253 254 254 255 255 256 256 257 258 258 258 259 259 260 260 261 261 261 261 262 263 263 264 264 265 265 265 266 267 268 268 268 269 269 269 269 268
260 261 261 261 262 262 262 262 263 263 263 263 263 263 263 263 263 263 263 263 263 263 263 262 262 262 262 262 262 262 262 261 261 260 260 259 259 258 257 256 256 255 255 255 254 254 254 253 253 253 253 254 254 255 255 255 256 256 256 257 257 257 258 258 259 260 260 260 260 260 261 262 263 263 263 264 264 265 266 267 267 268 268 268 268 268 267 267
260 261 261 261 261 262 262 262 262 261 261 261 261 261 261 262 262 262 262 262 261 260 260 260 260 260 261 261 261 261 261 260 260 259 258 258 258 257 257 256 256 255 255 255 254 254 254 254 254 254 254 255 255 255 255 255 256 256 257 257 257 257 258 258 259 260 260 260 260 260 261 261 262 263 263 264 266 266 267 267 266 266 266 267 266 266 266 266
260 260 260 260 260 260 260 259 259 259 259 259 259 259 260 260 261 261 260 259 258 257 257 258 259 259 260 260 260 260 260 259 258 258 257 256 256 256 256 255 255 255 254 254 254 254 254 254 254 254 255 255 255 255 255 256 256 257 257 257 257 258 258 259 260 260 261 261 261 261 261 262 262 264 265 266 266 266 265 265 265 265 265 265 265 264 264 264
259 259 259 258 258 257 257 256 256 256 256 256 257 258 258 259 259 258 257 256 255 255 255 257 257 258 258 258 258 258 259 259 258 258 257 256 255 255 254 254 254 253 253 253 253 253 253 253 254 254 254 254 255 255 256 256 256 257 257 258 258 258 259 260 260 261 261 262 262 262 263 263 264 264 264 264 264 264 264 264 264 264 264 264 263 263 263 264
257 256 256 255 255 254 254 253 254 254 253 255 257 257 257 257 256 255 254 254 254 255 255 256 257 257 257 257 257 257 258 258 259 258 258 256 255 254 253 253 253 252 252 253 253 253 253 253 253 253 253 254 254 255 255 256 256 257 258 259 259 260 260 260 261 261 262 262 263 263 263 263 263 263 262 262 262 262 262 262 262 262 262 262 262 262 263 263
253 253 252 252 252 252 252 252 253 252 252 255 257 257 256 256 255 254 254 255 255 256 256 256 257 257 257 257 257 257 257 257 257 257 257 257 256 255 254 253 253 252 252 251 251 251 251 252 252 252 253 253 253 253 254 255 256 257 258 259 260 261 262 262 262 262 262 263 263 263 263 263 263 263 263 262 262 262 261 262 262 261 261 261 261 262 263 264
250 250 250 250 251 251 252 252 253 252 252 255 257 257 256 256 256 256 256 256 256 257 257 257 258 258 258 258 258 257 257 257 257 257 257 256 256 256 256 255 254 253 252 251 250 250 251 251 251 251 251 251 251 252 253 254 255 256 258 259 260 262 262 262 261 262 263 264 264 264 264 263 263 264 264 264 263 263 262 262 261 261 261 261 262 263 264 265
249 249 250 250 251 251 251 252 253 252 253 255 257 256 256 256 256 256 256 257 257 258 258 259 259 259 259 259 259 258 258 258 257 257 257 256 256 257 257 256 256 255 254 253 252 252 252 251 251 250 249 249 249 250 251 253 254 256 258 259 260 261 261 261 262 263 264 264 264 264 264 264 264 264 264 263 263 263 262 262 261 261 261 262 263 263 264 264
250 250 250 250 251 251 251 252 252 253 254 256 256 256 255 255 255 256 257 258 259 259 260 260 260 260 260 260 260 260 259 259 258 258 257 257 257 257 257 257 256 256 255 255 254 254 253 252 251 250 249 249 250 251 252 254 255 256 257 258 259 260 261 262 264 265 265 265 265 265 265 265 264 263 264 263 262 261 261 261 261 261 261 262 262 263 263 263
252 251 251 251 250 251 251 252 252 253 254 255 255 255 255 255 256 257 257 258 259 260 261 261 261 260 260 260 261 261 260 259 258 258 258 257 257 257 257 257 257 257 257 257 257 257 256 255 253 252 251 252 253 254 255 255 256 256 257 257 258 259 261 263 265 267 267 267 267 266 265 265 264 264 264 264 262 261 261 261 261 261 262 262 262 262 262 263
253 252 252 251 251 251 251 252 252 252 253 254 254 254 255 256 257 257 258 259 260 260 261 261 261 261 261 261 261 260 260 260 260 260 259 259 259 258 258 258 258 258 258 258 259 259 258 256 255 254 255 256 256 257 256 256 257 257 257 257 258 259 260 262 264 267 269 270 269 268 267 266 265 263 263 263 263 262 262 262 262 262 262 262 262 262 262 262
254 254 253 252 252 252 252 252 252 252 253 253 254 255 255 256 257 258 258 259 260 261 261 262 262 262 262 262 261 261 261 262 262 262 261 260 259 259 258 258 258 259 259 259 258 258 258 258 258 258 259 258 257 256 256 256 257 258 259 259 259 260 260 261 261 264 267 270 271 271 270 269 267 265 263 263 263 263 262 263 263 263 263 263 262 261 261 261
255 255 254 254 253 253 252 253 253 253 254 254 255 256 256 256 257 258 258 259 260 260 261 262 263 263 263 264 263 262 262 262 262 263 262 261 260 259 259 258 259 259 258 258 257 257 257 258 259 260 259 258 257 257 256 257 257 259 260 261 261 261 261 261 261 261 264 267 270 271 272 272 271 268 265 264 263 262 262 263 264 263 262 262 261 260 260 259
256 256 256 255 254 254 254 254 254 255 255 255 256 257 257 257 257 258 259 259 259 260 261 262 263 264 264 264 264 264 263 262 262 262 262 262 262 261 260 260 260 260 259 258 258 258 259 259 260 259 258 257 257 257 257 257 257 258 259 260 261 261 261 261 262 262 263 264 267 269 270 271 270 269 267 265 264 263 262 263 264 263 262 260 259 259 259 258
256 256 256 256 255 255 255 255 255 256 256 256 257 257 258 258 258 259 259 259 259 260 261 262 263 264 264 264 264 264 263 263 262 261 262 262 262 262 262 262 262 261 261 261 261 260 260 260 259 258 258 258 258 258 258 258 258 257 258 259 260 260 261 262 262 262 263 263 264 266 267 267 268 268 267 266 265 263 261 262 262 262 261 261 261 260 259 258
256 256 256 256 256 256 256 256 256 257 257 258 259 259 260 260 260 260 261 260 260 261 261 262 263 264 264 263 263 263 263 263 263 262 262 262 262 262 262 262 261 261 262 262 261 261 260 260 259 259 259 258 258 259 259 259 259 258 258 259 259 260 260 261 261 261 261 262 263 263 263 264 265 265 265 265 265 263 261 260 260 260 259 260 260 260 259 260
256 256 256 255 255 256 256 257 258 258 259 260 260 261 262 263 263 263 263 263 262 262 262 263 263 263 263 262 262 262 262 262 262 263 263 262 262 262 261 260 260 260 260 261 261 261 260 260 261 260 260 260 260 260 259 259 260 259 259 259 259 260 260 260 260 260 259 260 261 262 262 262 262 262 262 262 262 263 261 260 259 259 260 260 259 257 258 260
255 255 256 256 256 256 256 257 258 259 260 261 262 263 264 264 265 265 265 265 264 264 264 263 263 263 263 262 261 261 261 261 262 262 262 262 262 262 262 261 261 260 260 260 260 261 261 261 262 262 262 262 261 260 260 260 260 260 260 260 260 260 259 259 259 259 259 258 258 260 261 261 262 262 261 261 261 261 261 260 260 260 260 260 260 258 257 257
255 255 255 256 256 256 256 257 258 259 261 262 263 264 264 265 265 266 266 266 266 265 265 264 264 264 264 263 263 262 261 261 261 261 261 261 261 261 261 262 262 261 260 260 261 261 262 261 262 263 264 263 262 261 261 261 261 261 261 261 261 260 260 260 259 259 258 258 257 257 258 259 261 262 262 262 262 262 261 260 260 261 261 261 260 259 258 258
255 256 256 256 257 257 257 258 259 260 261 263 264 264 265 265 266 266 266 266 266 266 265 265 264 264 265 265 265 265 264 263 262 261 261 261 261 260 260 261 261 260 260 261 262 263 263 263 262 263 263 262 262 263 263 263 263 263 263 263 263 262 262 261 260 258 258 258 258 257 257 256 257 260 263 263 263 264 264 264 262 261 261 261 261 260 260 260
256 256 257 258 258 259 259 259 260 261 262 263 264 264 265 265 266 266 266 266 266 266 266 266 266 265 265 266 266 266 265 264 264 263 263 263 263 261 261 260 261 260 260 260 261 263 265 265 264 263 263 263 263 264 265 264 264 265 265 265 264 263 262 262 261 260 259 259 259 258 258 257 256 258 262 264 264 265 266 265 264 262 261 260 261 262 262 262
256 257 258 259 260 260 261 261 262 262 263 264 264 264 265 265 266 266 266 267 267 267 267 267 266 266 266 265 265 265 265 265 265 265 265 265 265 265 264 263 263 262 262 261 262 263 264 265 265 264 263 263 264 264 264 264 264 265 266 266 265 264 264 264 263 263 262 260 259 259 258 258 257 258 260 262 264 264 263 263 263 263 262 261 261 262 262 262
257 258 259 260 261 262 262 263 263 264 264 265 265 265 265 265 266 266 266 267 267 267 267 267 266 266 266 265 265 265 265 265 265 265 265 265 266 266 266 265 265 265 264 264 264 264 264 265 265 265 265 264 264 264 264 264 265 265 266 266 266 266 266 265 265 264 263 261 259 259 259 259 258 258 258 260 262 263 263 263 263 263 262 262 261 261 261 261
257 258 258 259 260 261 262 263 264 264 264 265 265 266 266 266 266 266 267 267 267 267 266 266 266 266 265 265 265 264 265 265 264 264 264 264 265 265 265 265 265 266 266 265 266 266 265 264 265 266 266 265 265 265 264 264 265 265 266 266 266 265 265 264 264 264 263 262 261 261 261 260 259 259 259 258 259 262 264 263 263 263 262 261 259 259 260 261
257 258 258 259 260 261 262 263 264 264 265 265 266 266 267 267 267 267 267 266 266 266 266 265 264 264 264 264 264 264 264 264 264 263 263 264 264 264 265 265 266 266 266 266 265 266 266 266 265 266 267 267 266 266 265 265 266 265 265 265 265 265 264 263 264 264 264 264 264 264 263 263 262 261 261 260 258 259 262 262 262 262 261 261 260 259 260 261
258 258 259 259 260 261 262 263 264 264 265 266 266 267 267 267 267 266 266 266 266 265 264 263 263 262 262 262 263 264 264 264 264 264 264 264 264 264 265 265 266 266 266 266 266 266 267 267 266 266 266 267 267 267 267 267 266 266 266 266 266 266 266 265 265 265 264 264 264 263 263 263 262 261 261 260 260 259 259 260 261 261 261 260 260 260 260 261
259 259 260 260 261 261 262 263 264 264 265 266 266 267 266 266 266 266 265 265 265 264 263 263 262 261 261 262 263 263 263 264 265 265 264 264 264 265 265 265 265 265 266 266 267 267 267 268 267 266 266 267 267 267 267 267 267 266 267 267 267 267 267 266 266 265 265 265 264 264 264 263 262 262 262 261 261 260 259 258 259 259 260 260 259 260 260 260
259 259 260 260 261 261 262 263 263 264 264 265 265 265 264 264 264 265 265 264 263 263 262 262 262 262 262 262 262 263 263 264 265 265 264 265 265 265 266 266 266 266 266 266 265 265 266 266 266 266 266 266 267 268 268 268 268 268 267 267 267 267 267 267 266 266 266 266 266 266 265 264 263 263 263 262 261 260 259 258 258 258 258 258 258 258 259 259
259 259 260 260 260 261 261 262 262 263 263 263 263 263 262 263 263 264 264 263 263 263 263 263 263 262 262 262 262 263 263 264 265 265 266 266 267 267 268 268 269 268 268 267 266 265 265 266 266 266 266 266 266 267 267 268 268 268 267 267 267 267 266 266 266 266 266 266 266 265 265 265 265 263 263 263 262 261 260 260 259 260 260 260 259 259 259 259
258 259 259 259 260 260 261 261 262 262 262 262 262 261 261 262 262 262 263 263 263 263 263 263 263 263 262 262 263 263 263 263 264 265 266 266 267 268 269 270 270 270 269 269 268 267 266 267 267 268 268 267 267 267 267 268 268 268 268 267 267 266 266 266 266 266 266 266 266 266 266 266 266 265 264 264 264 264 264 264 263 262 262 262 262 261 260 260
258 258 258 259 259 260 260 261 262 262 262 262 261 261 260 261 261 261 262 263 263 263 263 263 263 264 264 263 263 263 263 263 264 265 267 267 268 269 270 270 270 270 270 270 270 269 268 268 269 269 270 270 269 269 269 269 268 268 269 269 268 268 267 267 267 267 267 267 267 267 267 267 268 268 267 266 267 267 267 266 266 265 264 264 264 263 262 262
258 258 258 259 259 260 260 261 261 261 261 261 261 261 260 260 260 261 262 262 262 262 262 262 263 263 264 264 264 265 265 265 265 266 267 268 269 269 269 270 269 269 269 269 270 270 270 270 270 271 271 272 272 271 271 271 270 268 268 268 268 268 268 268 268 268 268 268 268 268 268 269 270 271 271 270 269 269 269 269 268 267 266 266 265 265 265 264
259 258 258 259 259 259 260 260 260 260 261 261 261 260 260 260 260 261 261 262 262 262 262 262 262 263 264 265 266 267 267 267 268 268 268 268 268 268 267 267 268 268 268 268 268 268 268 268 269 269 270 271 272 272 272 273 272 271 269 268 267 267 267 267 267 266 267 267 268 269 269 270 271 271 272 271 270 269 269 269 268 268 267 266 265 264 264 264
260 259 259 259 259 259 259 259 260 260 260 260 260 260 260 260 260 260 261 262 262 262 262 262 263 263 264 265 266 267 268 268 269 269 269 268 267 266 265 265 265 266 267 267 267 266 266 265 265 266 267 268 269 270 271 272 273 272 271 270 268 268 268 268 268 268 268 268 269 268 268 269 269 269 269 270 270 270 268 268 267 267 267 266 265 264 263 263
261 260 260 260 260 259 259 259 259 259 260 260 260 260 260 260 260 260 261 261 262 262 263 263 264 264 265 266 266 267 268 268 268 268 268 267 267 267 267 266 266 265 265 266 266 266 266 264 264 263 264 265 266 267 268 269 270 271 272 272 271 270 269 269 269 269 268 269 268 268 268 268 268 268 268 268 269 269 270 269 269 268 267 267 267 266 266 265
263 262 261 262 261 260 259 258 258 259 260 260 260 260 260 260 260 260 260 261 261 262 263 263 264 265 265 266 267 267 267 267 267 268 268 267 266 265 265 265 265 265 265 265 265 265 265 265 264 263 263 263 265 265 266 266 267 268 270 271 272 272 271 270 269 269 268 268 267 267 267 267 267 268 269 269 269 268 268 269 269 269 268 268 268 268 268 267
266 265 263 263 263 262 261 259 259 259 259 260 260 260 260 260 260 260 260 260 260 261 262 263 264 264 265 266 266 266 267 267 267 267 268 268 267 266 265 265 265 265 266 266 266 266 265 265 265 264 264 264 264 265 265 265 266 267 268 269 271 272 272 272 271 271 271 270 269 269 269 267 266 267 267 268 268 269 269 268 268 268 269 268 268 268 268 267
267 266 265 265 265 264 263 262 260 260 259 260 260 261 261 261 261 260 260 260 260 260 261 261 262 263 264 265 265 266 266 267 267 267 267 268 269 269 269 268 268 268 268 268 268 268 268 268 267 267 266 266 266 266 267 267 268 268 268 269 270 271 272 273 273 273 273 271 271 272 271 268 267 266 265 265 266 267 267 267 267 267 267 267 267 267 266 266
266 266 265 265 265 265 265 263 262 262 261 261 261 261 261 261 261 261 260 260 260 260 260 260 261 262 263 264 265 266 265 265 265 265 265 266 267 268 268 269 269 268 268 268 268 268 269 269 270 270 270 269 269 269 269 270 271 271 271 271 272 272 272 273 273 273 272 272 272 271 270 269 268 267 266 265 265 264 264 264 264 264 265 266 266 267 266 266
268 267 266 265 264 265 265 264 263 263 262 262 262 261 261 261 261 261 261 261 261 261 261 262 262 263 263 264 264 264 264 263 263 263 263 264 265 266 267 267 268 269 269 270 270 271 271 271 272 272 272 272 272 271 271 271 271 272 273 273 273 273 273 273 273 273 272 272 271 269 269 269 270 269 269 268 266 265 264 263 262 262 262 263 265 266 266 266
269 269 268 267 265 265 265 265 265 264 263 263 263 262 262 262 262 262 262 262 262 263 264 264 264 264 264 263 263 262 262 262 263 263 263 264 264 266 267 268 270 271 272 273 273 272 272 272 271 271 271 272 272 272 272 272 271 271 272 273 274 274 274 274 274 273 273 272 271 269 269 270 270 270 270 269 267 266 266 265 264 263 263 263 263 264 265 265
269 269 268 267 266 265 265 265 266 266 265 265 264 264 264 264 264 264 264 264 264 264 265 264 264 264 264 264 264 263 263 263 263 264 265 265 266 267 269 270 272 272 273 272 272 271 271 271 271 271 271 272 273 273 273 273 273 273 274 275 275 274 274 274 274 273 273 273 273 271 271 272 271 270 269 268 268 268 267 267 266 265 264 264 263 263 263 264
268 268 268 267 266 265 264 264 264 264 265 266 266 266 266 266 266 265 264 264 264 264 263 263 263 263 263 263 263 263 263 263 264 264 265 266 267 268 269 270 271 272 272 272 272 272 272 272 272 272 273 273 274 274 273 273 273 275 277 277 275 273 273 273 274 275 275 275 274 274 274 273 272 271 270 270 270 269 269 269 269 268 267 267 266 265 265 264
266 266 267 267 267 266 265 264 263 263 263 264 264 265 266 266 267 267 266 265 265 264 264 264 264 264 263 264 263 263 263 263 264 265 266 268 269 270 270 271 271 271 272 273 274 274 274 274 274 274 274 273 273 273 273 273 275 277 276 274 273 273 273 274 275 276 276 276 276 275 275 273 271 271 272 271 270 270 270 271 271 270 270 269 268 267 267 266
Height
10655 10657 10658 10660 10661 10662 10664 10665 10667 10668 10669 10670 10670 10671 10671 10671 10671 10671 10671 10671 10670 10670 10670 10671 10673 10674 10676 10677 10678 10678 10679 10680 10681 10683 10684 10685 10686 10689 10690 10691 10692 10694 10697 10699 10701 10703 10706 10708 10709 10709 10709 10710 10711 10712 10715 10719 10722 10724 10724 10725 10724 10722 10723 10726 10728 10731 10738 10744 10745 10744 10747 10749 10750 10755 10758 10760 10763 10763 10763 10761 10757 10757 10755 10753 10753 10753 10754 10754
10649 10650 10652 10653 10654 10656 10657 10659 10660 10662 10662 10663 10664 10664 10664 10664 10664 10664 10663 10663 10662 10662 10663 10664 10665 10667 10668 10669 10670 10671 10672 10672 10673 10674 10675 10676 10678 10680 10681 10681 10683 10686 10688 10691 10692 10695 10697 10698 10699 10699 10700 10701 10702 10705 10708 10711 10713 10714 10714 10715 10712 10712 10716 10717 10718 10724 10731 10735 10735 10735 10738 10740 10741 10744 10748 10750 10751 10753 10753 10751 10749 10748 10746 10745 10744 10743 10745 10744
10642 10644 10645 10646 10648 10649 10651 10652 10654 10655 10656 10656 10657 10657 10658 10657 10657 10656 10656 10655 10655 10655 10655 10656 10658 10659 10660 10661 10662 10663 10663 10663 10664 10665 10665 10667 10669 10670 10672 10673 10675 10678 10680 10682 10683 10686 10688 10688 10689 10690 10692 10693 10695 10698 10700 10702 10703 10705 10706 10704 10702 10705 10709 10707 10709 10715 10722 10724 10725 10726 10730 10731 10732 10735 10738 10739 10741 10742 10742 10741 10741 10740 10739 10737 10735 10735 10735 10733
10637 10638 10639 10640 10642 10643 10644 10646 10647 10648 10649 10650 10650 10651 10651 10650 10650 10649 10648 10648 10647 10648 10648 10649 10650 10651 10652 10653 10653 10653 10654 10655 10655 10656 10657 10659 10660 10662 10663 10664 10667 10669 10671 10673 10675 10677 10678 10679 10680 10681 10684 10687 10689 10690 10691 10693 10695 10697 10696 10692 10694 10699 10699 10697 10700 10705 10711 10715 10716 10719 10721 10722 10724 10726 10727 10729 10730 10731 10731 10732 10732 10731 10730 10729 10727 10726 10725 10722
10632 10633 10634 10634 10636 10637 10638 10639 10640 10642 10643 10643 10644 10644 10644 10643 10643 10642 10641 10641 10640 10641 10641 10642 10642 10643 10643 10643 10643 10644 10645 10647 10646 10647 10649 10650 10651 10653 10654 10656 10658 10660 10662 10664 10666 10668 10669 10671 10672 10674 10676 10679 10680 10680 10683 10685 10688 10688 10683 10683 10688 10690 10689 10689 10691 10696 10703 10707 10708 10711 10712 10712 10716 10718 10719 10720 10720 10720 10721 10722 10722 10721 10721 10720 10718 10717 10716 10715
10626 10627 10628 10629 10630 10631 10632 10633 10634 10635 10636 10636 10637 10637 10637 10636 10635 10635 10634 10634 10633 10633 10634 10634 10635 10635 10634 10634 10635 10636 10637 10638 10638 10639 10640 10641 10642 10644 10645 10647 10649 10651 10653 10655 10657 10659 10660 10662 10664 10666 10668 10670 10671 10672 10675 10676 10676 10675 10672 10675 10681 10682 10682 10683 10684 10687 10693 10698 10701 10702 10702 10704 10707 10709 10711 10711 10710 10710 10711 10712 10711 10712 10711 10710 10709 10709 10710 10710
10621 10622 10623 10623 10624 10625 10626 10627 10628 10629 10629 10630 10630 10630 10629 10629 10628 10628 10627 10627 10626 10627 10627 10628 10628 10627 10626 10627 10627 10628 10629 10630 10630 10631 10632 10633 10634 10636 10638 10639 10640 10642 10644 10646 10647 10649 10652 10654 10656 10657 10658 10660 10661 10662 10665 10666 10666 10666 10666 10670 10675 10675 10675 10676 10676 10678 10683 10689 10694 10694 10694 10696 10698 10700 10703 10703 10701 10701 10701 10701 10702 10703 10702 10701 10701 10703 10703 10701
10616 10617 10617 10617 10618 10619 10620 10621 10622 10622 10623 10623 10623 10623 10623 10622 10622 10621 10621 10621 10620 10621 10621 10621 10621 10620 10620 10621 10621 10622 10623 10623 10624 10625 10626 10626 10627 10629 10631 10631 10632 10634 10635 10637 10639 10641 10644 10645 10646 10647 10649 10650 10651 10654 10657 10658 10658 10658 10660 10664 10667 10666 10666 10668 10666 10667 10672 10679 10685 10687 10686 10687 10689 10691 10693 10694 10693 10693 10693 10693 10694 10694 10693 10692 10693 10694 10693 10690
10611 10611 10611 10612 10613 10614 10615 10615 10616 10616 10617 10617 10617 10617 10616 10616 10616 10616 10615 10615 10615 10616 10616 10616 10616 10615 10616 10616 10616 10617 10618 10618 10619 10619 10620 10621 10622 10623 10624 10625 10626 10627 10629 10630 10632 10634 10636 10637 10638 10639 10641 10643 10645 10648 10650 10649 10649 10649 10652 10655 10656 10655 10657 10659 10657 10657 10662 10669 10676 10678 10678 10678 10680 10682 10683 10684 10684 10686 10686 10686 10686 10685 10684 10684 10684 10684 10681 10678
10606 10606 10606 10607 10607 10608 10609 10610 10610 10611 10611 10612 10612 10612 10611 10611 10611 10611 10611 10611 10611 10611 10612 10612 10612 10611 10612 10612 10612 10613 10613 10614 10614 10615 10615 10616 10617 10617 10619 10620 10621 10622 10624 10625 10626 10628 10629 10630 10631 10633 10635 10637 10638 10640 10640 10640 10641 10642 10644 10646 10646 10647 10649 10650 10649 10650 10653 10659 10665 10669 10670 10671 10672 10673 10674 10676 10678 10679 10678 10676 10676 10675 10675 10676 10675 10674 10671 10669
10600 10601 10601 10602 10602 10603 10604 10605 10605 10606 10606 10607 10607 10607 10607 10606 10606 10606 10606 10607 10607 10608 10608 10609 10608 10608 10608 10608 10609 10609 10609 10609 10610 10611 10611 10612 10613 10613 10614 10615 10616 10618 10619 10620 10621 10623 10624 10625 10626 10628 10629 10630 10631 10632 10632 10634 10634 10635 10636 10637 10638 10640 10642 10643 10643 10644 10645 10649 10656 10660 10662 10664 10666 10667 10668 10669 10669 10669 10667 10666 10666 10666 10666 10666 10665 10663 10661 10660
10595 10596 10596 10597 10598 10598 10599 10600 10601 10601 10602 10602 10603 10603 10603 10603 10603 10603 10603 10603 10604 10604 10605 10605 10605 10604 10604 10605 10605 10605 10606 10606 10607 10607 10608 10608 10609 10609 10610 10611 10612 10613 10614 10616 10617 10618 10618 10619 10621 10622 10623 10624 10625 10626 10626 10627 10627 10628 10629 10629 10631 10633 10635 10636 10636 10638 10638 10641 10647 10651 10654 10657 10660 10661 10660 10659 10658 10658 10657 10656 10657 10657 10657 10655 10654 10652 10651 10651
10590 10591 10592 10593 10593 10594 10595 10596 10596 10597 10597 10598 10599 10599 10599 10599 10599 10599 10599 10600 10601 10601 10602 10602 10601 10601 10601 10601 10602 10603 10603 10603 10604 10604 10605 10605 10605 10606 10606 10607 10608 10609 10610 10611 10612 10613 10613 10614 10616 10617 10618 10619 10620 10619 10620 10621 10621 10622 10622 10623 10625 10626 10629 10630 10630 10631 10632 10635 10640 10644 10648 10650 10650 10650 10649 10649 10649 10649 10648 10648 10649 10648 10647 10645 10644 10643 10642 10643
10586 10587 10588 10588 10589 10590 10590 10591 10592 10593 10594 10595 10595 10595 10595 10595 10595 10596 10596 10597 10597 10598 10598 10598 10598 10598 10598 10598 10599 10600 10600 10601 10601 10601 10601 10602 10602 10602 10603 10604 10604 10605 10606 10607 10608 10608 10609 10610 10611 10612 10614 10614 10614 10614 10614 10615 10616 10617 10617 10618 10619 10620 10622 10624 10623 10624 10625 10628 10632 10636 10640 10641 10640 10640 10640 10640 10640 10640 10640 10640 10641 10639 10637 10636 10636 10636 10636 10636
10582 10583 10584 10584 10585 10586 10586 10587 10588 10589 10590 10591 10591 10592 10592 10592 10592 10592 10593 10593 10593 10594 10594 10594 10594 10594 10595 10595 10596 10597 10597 10597 10598 10598 10598 10598 10599 10599 10600 10601 10601 10602 10603 10603 10604 10604 10605 10606 10607 10608 10609 10609 10609 10609 10610 10611 10612 10613 10613 10614 10615 10615 10616 10616 10616 10618 10619 10622 10626 10629 10632 10632 10634 10634 10632 10632 10632 10631 10631 10632 10632 10631 10629 10629 10629 10630 10631 10629
10578 10579 10580 10580 10581 10582 10582 10583 10584 10585 10586 10587 10588 10588 10588 10588 10588 10588 10589 10589 10590 10590 10591 10591 10590 10591 10592 10592 10592 10593 10594 10594 10594 10594 10594 10595 10595 10596 10597 10597 10598 10598 10599 10600 10600 10601 10602 10602 10603 10604 10604 10604 10604 10605 10606 10607 10608 10609 10609 10609 10610 10609 10610 10609 10610 10613 10614 10616 10619 10622 10625 10625 10628 10629 10624 10624 10625 10623 10622 10623 10623 10623 10622 10623 10624 10625 10624 10622
10574 10575 10576 10576 10577 10578 10578 10579 10580 10581 10582 10583 10584 10584 10584 10584 10584 10584 10584 10585 10586 10586 10587 10587 10586 10587 10588 10588 10589 10590 10590 10590 10590 10590 10590 10591 10592 10592 10593 10593 10594 10594 10595 10596 10596 10597 10598 10598 10599 10599 10599 10599 10600 10601 10602 10603 10604 10604 10604 10604 10604 10604 10604 10605 10606 10608 10608 10610 10613 10616 10618 10619 10623 10622 10618 10617 10617 10616 10615 10614 10615 10616 10616 10617 10618 10618 10617 10616
10570 10571 10572 10572 10573 10574 10575 10576 10577 10577 10578 10578 10579 10580 10580 10580 10580 10580 10581 10581 10582 10582 10583 10582 10582 10583 10584 10585 10586 10585 10585 10585 10585 10585 10586 10587 10588 10588 10589 10589 10589 10590 10591 10592 10593 10593 10593 10593 10593 10594 10595 10596 10598 10599 10599 10598 10599 10599 10599 10599 10599 10600 10600 10602 10603 10602 10603 10605 10607 10610 10612 10614 10617 10617 10614 10611 10610 10610 10609 10609 10609 10610 10611 10611 10612 10612 10611 10610
10566 10567 10568 10569 10569 10570 10571 10572 10573 10573 10574 10574 10575 10575 10576 10576 10576 10576 10577 10578 10578 10578 10578 10578 10578 10580 10581 10581 10581 10580 10580 10580 10580 10581 10582 10582 10583 10584 10584 10584 10584 10586 10587 10588 10589 10588 10587 10587 10588 10589 10592 10594 10595 10594 10594 10593 10593 10593 10593 10593 10594 10596 10597 10598 10599 10598 10598 10599 10601 10604 10606 10608 10611 10612 10610 10607 10606 10605 10604 10604 10605 10606 10606 10606 10607 10606 10605 10605
10562 10563 10564 10565 10566 10566 10567 10568 10569 10569 10570 10570 10570 10572 10572 10572 10572 10572 10573 10574 10574 10574 10574 10574 10574 10576 10577 10577 10576 10576 10577 10576 10576 10577 10577 10578 10578 10579 10579 10579 10580 10581 10583 10584 10584 10582 10582 10581 10582 10586 10589 10590 10589 10588 10588 10588 10588 10588 10588 10588 10589 10591 10592 10593 10594 10595 10595 10595 10596 10598 10600 10602 10605 10606 10605 10603 10602 10601 10600 10600 10601 10601 10602 10601 10601 10601 10600 10599
10559 10559 10560 10561 10562 10563 10563 10564 10565 10565 10566 10566 10567 10568 10569 10568 10568 10568 10569 10570 10570 10570 10570 10570 10570 10571 10572 10572 10572 10572 10573 10573 10572 10572 10572 10573 10573 10574 10575 10575 10576 10577 10578 10578 10577 10577 10576 10577 10579 10583 10583 10583 10582 10582 10582 10583 10583 10583 10583 10583 10583 10585 10586 10588 10589 10591 10592 10592 10592 10593 10595 10596 10598 10599 10599 10599 10598 10598 10598 10597 10598 10598 10598 10597 10597 10596 10596 10595
10555 10555 10556 10557 10558 10559 10560 10560 10561 10561 10562 10563 10563 10564 10564 10564 10564 10564 10565 10565 10566 10565 10565 10565 10566 10567 10568 10568 10567 10568 10568 10569 10568 10568 10568 10568 10568 10569 10570 10571 10572 10572 10572 10572 10573 10572 10572 10573 10576 10577 10576 10576 10576 10576 10577 10577 10578 10578 10578 10577 10578 10579 10581 10582 10585 10587 10588 10588 10588 10588 10589 10591 10592 10592 10593 10593 10593 10594 10595 10595 10595 10595 10594 10594 10593 10592 10592 10591
10551 10551 10552 10553 10554 10555 10556 10557 10557 10557 10558 10559 10559 10559 10560 10560 10560 10560 10561 10561 10561 10561 10561 10561 10562 10563 10563 10563 10563 10563 10564 10564 10564 10564 10564 10564 10564 10565 10566 10566 10567 10567 10567 10568 10568 10567 10566 10568 10570 10570 10570 10571 10571 10571 10571 10571 10572 10573 10573 10573 10573 10574 10576 10578 10580 10582 10583 10584 10584 10584 10585 10585 10586 10586 10586 10587 10587 10590 10592 10592 10592 10592 10591 10590 10591 10590 10589 10588
10547 10547 10548 10549 10550 10551 10552 10553 10553 10554 10554 10555 10555 10555 10555 10556 10556 10556 10557 10557 10557 10557 10557 10557 10558 10558 10559 10559 10559 10559 10560 10560 10560 10560 10560 10560 10560 10561 10562 10561 10561 10562 10563 10563 10562 10560 10561 10563 10564 10564 10565 10566 10566 10566 10565 10565 10566 10567 10568 10568 10568 10570 10572 10573 10575 10576 10578 10579 10579 10579 10580 10581 10581 10580 10580 10581 10582 10584 10587 10589 10588 10588 10588 10588 10589 10589 10587 10586
10542 10543 10543 10544 10546 10547 10547 10548 10549 10549 10550 10551 10551 10551 10551 10552 10552 10552 10552 10553 10553 10553 10553 10553 10553 10553 10554 10554 10554 10555 10556 10556 10556 10556 10556 10556 10556 10556 10557 10556 10557 10558 10559 10558 10557 10555 10556 10558 10559 10559 10560 10561 10561 10560 10559 10559 10560 10561 10562 10562 10564 10566 10567 10568 10569 10571 10573 10574 10574 10573 10575 10576 10575 10574 10575 10576 10577 10578 10581 10584 10584 10584 10585 10586 10587 10586 10586 10585
10538 10538 10539 10540 10541 10542 10543 10544 10544 10545 10546 10546 10547 10547 10547 10547 10548 10548 10548 10548 10548 10549 10549 10549 10549 10549 10549 10550 10550 10551 10552 10552 10552 10552 10552 10552 10552 10552 10551 10551 10552 10554 10555 10553 10552 10550 10552 10555 10555 10555 10556 10556 10556 10554 10553 10554 10555 10556 10556 10557 10559 10560 10562 10563 10564 10565 10567 10568 10569 10569 10570 10570 10569 10567 10568 10570 10572 10573 10576 10578 10579 10580 10581 10582 10583 10583 10583 10582
10533 10534 10534 10535 10536 10537 10538 10539 10540 10540 10541 10541 10542 10542 10543 10543 10543 10543 10544 10543 10543 10544 10544 10544 10544 10544 10544 10544 10545 10546 10547 10548 10547 10547 10547 10547 10547 10547 10547 10547 10548 10549 10549 10548 10547 10546 10548 10551 10551 10551 10551 10551 10549 10548 10548 10550 10550 10550 10550 10551 10554 10555 10556 10557 10558 10559 10561 10562 10563 10563 10564 10565 10563 10560 10560 10564 10566 10567 10570 10573 10575 10576 10577 10578 10579 10578 10578 10577
10529 10529 10529 10530 10530 10531 10533 10534 10535 10536 10536 10536 10537 10538 10538 10538 10538 10538 10539 10538 10538 10539 10539 10539 10540 10540 10539 10540 10540 10541 10542 10542 10542 10542 10542 10542 10542 10543 10542 10542 10543 10544 10545 10544 10542 10542 10543 10546 10547 10547 10546 10545 10544 10543 10544 10545 10545 10544 10545 10547 10548 10549 10550 10550 10552 10553 10554 10556 10556 10557 10558 10559 10559 10555 10553 10558 10560 10560 10565 10568 10570 10571 10572 10573 10573 10573 10573 10571
10524 10524 10525 10525 10525 10526 10527 10528 10530 10531 10531 10531 10532 10533 10533 10533 10533 10533 10533 10533 10533 10534 10534 10535 10535 10535 10535 10535 10535 10536 10535 10536 10536 10537 10537 10536 10536 10537 10537 10537 10537 10538 10540 10539 10538 10538 10538 10540 10542 10541 10540 10539 10539 10538 10539 10539 10539 10539 10541 10541 10542 10543 10544 10544 10545 10546 10549 10551 10550 10550 10550 10551 10554 10553 10549 10551 10554 10556 10559 10561 10562 10564 10566 10567 10567 10567 10566 10564
10519 10519 10519 10520 10520 10520 10521 10523 10524 10525 10526 10526 10527 10527 10528 10528 10528 10528 10528 10528 10528 10528 10529 10530 10530 10530 10530 10530 10529 10529 10529 10530 10531 10531 10532 10531 10530 10530 10531 10532 10532 10533 10534 10534 10533 10534 10534 10534 10535 10534 10533 10534 10534 10533 10533 10533 10534 10535 10535 10535 10536 10537 10538 10539 10539 10540 10542 10544 10542 10542 10543 10545 10549 10548 10546 10547 10548 10550 10553 10553 10555 10557 10559 10561 10562 10561 10558 10557
10513 10514 10514 10514 10514 10514 10515 10516 10518 10520 10520 10520 10521 10522 10522 10522 10522 10522 10522 10522 10522 10522 10523 10524 10524 10524 10524 10524 10523 10523 10524 10525 10525 10526 10526 10525 10525 10525 10525 10526 10527 10527 10528 10529 10529 10528 10529 10529 10528 10527 10527 10527 10528 10527 10527 10527 10528 10529 10529 10529 10530 10531 10532 10533 10533 10534 10536 10536 10535 10536 10537 10540 10542 10541 10542 10544 10543 10542 10545 10547 10549 10551 10552 10555 10556 10554 10551 10550
10507 10508 10509 10509 10508 10509 10509 10510 10512 10514 10514 10514 10515 10516 10516 10515 10515 10516 10516 10516 10516 10516 10517 10518 10518 10519 10519 10517 10516 10517 10519 10519 10519 10520 10520 10519 10519 10519 10519 10520 10521 10521 10522 10524 10523 10522 10523 10523 10522 10520 10520 10520 10521 10520 10520 10520 10521 10523 10523 10523 10523 10524 10526 10526 10525 10527 10528 10528 10529 10531 10531 10533 10534 10535 10537 10539 10538 10537 10538 10540 10542 10544 10545 10547 10549 10548 10545 10544
10501 10502 10503 10503 10503 10503 10504 10504 10506 10507 10508 10508 10509 10510 10510 10509 10509 10509 10510 10510 10510 10510 10511 10511 10512 10513 10512 10511 10510 10511 10513 10512 10511 10513 10514 10513 10513 10513 10513 10514 10515 10516 10516 10517 10517 10516 10515 10516 10516 10515 10513 10513 10513 10512 10513 10514 10515 10516 10516 10516 10516 10517 10518 10519 10519 10520 10521 10521 10523 10525 10525 10526 10528 10529 10530 10531 10533 10534 10533 10533 10535 10536 10538 10540 10541 10541 10540 10538
10495 10496 10496 10497 10497 10497 10498 10499 10499 10500 10501 10502 10503 10504 10504 10502 10502 10502 10503 10503 10504 10505 10504 10504 10506 10506 10505 10505 10504 10505 10506 10505 10505 10506 10507 10507 10506 10506 10507 10508 10509 10509 10509 10510 10511 10510 10509 10508 10509 10508 10507 10506 10504 10504 10505 10507 10507 10508 10508 10509 10509 10509 10510 10512 10512 10513 10514 10514 10516 10518 10517 10519 10520 10521 10522 10523 10525 10528 10528 10527 10528 10529 10531 10532 10533 10534 10534 10533
10488 10489 10490 10490 10491 10491 10492 10492 10493 10494 10495 10496 10497 10498 10497 10496 10495 10496 10497 10497 10498 10498 10497 10498 10499 10499 10499 10499 10499 10499 10500 10500 10499 10499 10500 10500 10500 10500 10501 10502 10502 10503 10504 10504 10504 10503 10503 10501 10500 10500 10500 10499 10497 10496 10498 10498 10499 10500 10502 10502 10502 10501 10502 10503 10504 10505 10506 10506 10509 10510 10509 10510 10513 10513 10514 10516 10518 10520 10520 10521 10522 10523 10524 10526 10527 10527 10528 10527
10482 10482 10483 10483 10484 10484 10485 10486 10487 10487 10489 10490 10491 10491 10491 10490 10490 10490 10490 10491 10492 10491 10492 10492 10492 10493 10493 10493 10493 10493 10494 10494 10493 10492 10493 10493 10493 10494 10494 10494 10495 10496 10497 10497 10496 10497 10496 10493 10492 10492 10492 10492 10490 10489 10490 10491 10491 10493 10495 10494 10494 10494 10494 10495 10496 10496 10498 10499 10501 10502 10500 10500 10505 10506 10505 10506 10508 10509 10510 10513 10515 10516 10517 10519 10520 10521 10521 10521
10475 10476 10476 10477 10477 10478 10479 10479 10480 10481 10482 10484 10485 10485 10485 10485 10485 10484 10484 10485 10486 10486 10486 10486 10486 10487 10487 10487 10487 10488 10488 10488 10487 10485 10486 10487 10487 10487 10488 10487 10487 10488 10488 10488 10488 10489 10489 10487 10485 10484 10485 10485 10484 10483 10483 10484 10484 10485 10486 10486 10487 10487 10486 10487 10488 10489 10490 10491 10492 10493 10491 10491 10494 10497 10496 10496 10497 10498 10501 10505 10508 10509 10510 10510 10512 10514 10514 10514
10469 10470 10470 10470 10471 10471 10472 10473 10474 10475 10476 10477 10478 10479 10479 10480 10480 10478 10478 10479 10480 10480 10481 10481 10480 10480 10480 10481 10481 10482 10482 10482 10481 10480 10480 10481 10481 10481 10481 10481 10480 10479 10479 10480 10479 10480 10481 10481 10478 10477 10477 10477 10478 10477 10477 10477 10478 10477 10477 10478 10479 10478 10478 10479 10480 10481 10483 10483 10484 10485 10483 10483 10484 10485 10487 10488 10488 10490 10493 10497 10500 10501 10501 10501 10502 10504 10505 10506
10463 10464 10463 10463 10464 10465 10466 10467 10468 10469 10469 10471 10472 10473 10474 10474 10474 10473 10472 10473 10475 10475 10475 10474 10474 10473 10474 10474 10474 10475 10475 10475 10475 10475 10474 10474 10475 10475 10475 10474 10473 10472 10471 10471 10471 10471 10473 10474 10472 10470 10469 10469 10470 10471 10469 10469 10471 10471 10470 10470 10471 10471 10471 10472 10473 10474 10475 10476 10477 10478 10477 10475 10474 10474 10477 10480 10481 10482 10484 10487 10489 10490 10491 10491 10492 10493 10495 10497
10457 10457 10456 10456 10458 10459 10460 10461 10462 10462 10463 10464 10465 10467 10468 10468 10468 10467 10467 10467 10468 10469 10469 10468 10468 10467 10467 10467 10467 10468 10468 10468 10469 10469 10468 10468 10469 10469 10468 10467 10465 10465 10464 10464 10464 10464 10466 10467 10466 10464 10462 10461 10462 10462 10461 10461 10462 10464 10464 10464 10464 10464 10464 10465 10466 10467 10468 10469 10470 10472 10471 10469 10467 10467 10468 10470 10474 10475 10475 10477 10478 10480 10480 10481 10482 10482 10484 10486
10450 10450 10450 10450 10452 10453 10454 10455 10455 10455 10456 10457 10458 10460 10461 10462 10462 10461 10461 10461 10462 10462 10462 10462 10462 10462 10461 10461 10461 10461 10461 10461 10462 10462 10462 10462 10462 10462 10462 10460 10459 10458 10457 10457 10458 10459 10459 10460 10460 10459 10457 10455 10455 10455 10454 10453 10454 10455 10456 10457 10457 10457 10457 10458 10459 10461 10462 10463 10465 10466 10466 10465 10463 10461 10460 10461 10464 10466 10467 10468 10468 10469 10470 10471 10472 10473 10474 10475
10444 10444 10443 10444 10446 10447 10448 10448 10448 10448 10449 10450 10451 10453 10454 10455 10455 10455 10455 10455 10455 10456 10456 10455 10455 10455 10455 10454 10454 10454 10455 10455 10455 10455 10455 10455 10455 10455 10455 10454 10453 10452 10451 10451 10451 10452 10453 10454 10454 10453 10452 10451 10450 10449 10448 10447 10446 10446 10447 10449 10450 10450 10450 10451 10452 10454 10456 10457 10459 10460 10460 10460 10457 10455 10454 10454 10454 10456 10458 10459 10459 10460 10460 10461 10462 10463 10464 10466
10438 10438 10437 10438 10439 10440 10442 10442 10442 10441 10442 10443 10444 10446 10447 10449 10449 10448 10448 10449 10449 10449 10448 10448 10448 10447 10448 10448 10448 10448 10449 10449 10449 10447 10447 10448 10448 10447 10447 10447 10446 10446 10446 10445 10444 10445 10446 10447 10448 10448 10447 10446 10445 10445 10443 10442 10440 10439 10439 10440 10442 10443 10444 10444 10445 10447 10449 10451 10452 10452 10454 10454 10449 10446 10448 10449 10448 10448 10449 10450 10450 10451 10451 10451 10453 10454 10455 10457
10432 10432 10432 10432 10432 10434 10435 10436 10436 10435 10435 10436 10437 10438 10440 10441 10442 10442 10442 10442 10442 10442 10441 10441 10441 10441 10441 10441 10442 10442 10442 10442 10442 10441 10440 10440 10440 10440 10440 10440 10439 10439 10439 10439 10438 10438 10438 10439 10441 10442 10442 10442 10441 10439 10437 10435 10434 10434 10434 10433 10433 10434 10435 10436 10437 10438 10442 10445 10444 10444 10447 10446 10441 10439 10440 10441 10441 10441 10441 10441 10441 10441 10442 10443 10444 10446 10447 10449
10427 10427 10427 10426 10426 10427 10429 10430 10430 10429 10429 10430 10430 10431 10433 10434 10435 10434 10434 10434 10435 10435 10435 10434 10434 10434 10434 10435 10435 10435 10436 10435 10435 10435 10433 10431 10432 10433 10433 10432 10432 10432 10432 10432 10431 10431 10431 10432 10434 10435 10435 10436 10435 10432 10430 10429 10428 10429 10428 10427 10426 10426 10426 10427 10427 10429 10434 10436 10436 10438 10439 10436 10434 10433 10433 10432 10433 10433 10433 10434 10434 10434 10433 10434 10435 10437 10438 10439
10422 10422 10422 10422 10421 10422 10423 10424 10424 10423 10424 10423 10424 10425 10426 10426 10426 10427 10427 10427 10428 10429 10429 10428 10428 10428 10428 10429 10428 10429 10429 10429 10428 10428 10427 10425 10424 10424 10424 10424 10424 10424 10425 10424 10424 10424 10425 10426 10426 10428 10429 10429 10428 10426 10423 10422 10421 10421 10421 10421 10420 10419 10418 10418 10418 10421 10423 10424 10428 10430 10426 10423 10425 10424 10424 10425 10426 10426 10425 10424 10425 10426 10424 10424 10425 10427 10428 10429
10417 10417 10417 10417 10417 10417 10417 10418 10418 10418 10418 10418 10418 10419 10419 10419 10419 10419 10420 10421 10421 10422 10422 10422 10423 10422 10423 10423 10422 10422 10423 10422 10422 10421 10421 10420 10419 10417 10417 10416 10415 10416 10416 10417 10417 10417 10418 10419 10419 10420 10420 10420 10420 10418 10417 10416 10415 10413 10412 10413 10414 10411 10410 10410 10410 10412 10411 10413 10421 10420 10410 10411 10415 10412 10413 10417 10417 10416 10416 10415 10416 10416 10415 10415 10415 10416 10418 10419
10412 10412 10412 10412 10412 10412 10411 10412 10412 10412 10412 10412 10412 10413 10413 10412 10412 10413 10414 10415 10415 10415 10416 10417 10417 10416 10417 10417 10416 10416 10416 10415 10416 10415 10415 10414 10413 10411 10410 10409 10408 10408 10408 10409 10410 10410 10411 10412 10412 10412 10413 10412 10411 10410 10409 10409 10408 10407 10405 10405 10404 10402 10401 10401 10400 10401 10400 10403 10410 10408 10399 10402 10405 10401 10402 10406 10405 10405 10405 10405 10406 10406 10405 10406 10407 10407 10407 10408
10407 10407 10407 10407 10408 10407 10406 10406 10406 10406 10406 10406 10406 10407 10406 10405 10405 10406 10408 10408 10409 10409 10409 10410 10411 10410 10410 10410 10410 10409 10410 10409 10409 10409 10408 10407 10406 10404 10402 10401 10401 10400 10400 10401 10401 10401 10403 10404 10404 10405 10405 10404 10402 10401 10400 10400 10400 10401 10399 10397 10395 10393 10391 10390 10390 10389 10388 10391 10396 10394 10391 10395 10396 10390 10390 10392 10392 10393 10393 10393 10395 10395 10396 10397 10397 10397 10397 10397
10402 10401 10401 10401 10402 10402 10402 10401 10401 10400 10400 10400 10400 10400 10399 10399 10399 10400 10401 10402 10403 10404 10403 10403 10404 10404 10403 10403 10403 10402 10403 10403 10402 10401 10401 10400 10399 10397 10396 10395 10394 10392 10392 10392 10391 10392 10394 10395 10395 10395 10397 10399 10394 10390 10391 10391 10390 10392 10392 10389 10386 10383 10381 10379 10378 10377 10376 10379 10382 10379 10382 10389 10385 10377 10378 10380 10381 10382 10381 10382 10384 10384 10385 10386 10386 10386 10387 10387
10396 10396 10395 10395 10396 10396 10396 10396 10396 10395 10395 10394 10394 10394 10393 10392 10393 10394 10395 10396 10397 10397 10397 10397 10397 10397 10396 10396 10396 10396 10395 10395 10394 10394 10394 10392 10392 10391 10390 10389 10387 10384 10383 10381 10382 10384 10384 10386 10387 10385 10388 10392 10386 10379 10381 10380 10380 10386 10387 10380 10373 10371 10371 10370 10368 10367 10365 10366 10367 10366 10372 10377 10370 10362 10366 10370 10370 10370 10369 10370 10371 10372 10373 10374 10374 10375 10375 10376
10391 10390 10390 10389 10389 10389 10389 10389 10389 10390 10390 10389 10388 10388 10387 10387 10386 10386 10387 10389 10390 10390 10390 10390 10390 10390 10390 10390 10389 10388 10388 10389 10388 10387 10387 10386 10385 10383 10381 10380 10378 10377 10375 10372 10371 10373 10373 10375 10377 10374 10378 10383 10376 10370 10371 10369 10373 10383 10379 10366 10359 10360 10362 10361 10361 10360 10356 10353 10353 10355 10359 10360 10355 10352 10354 10355 10357 10359 10359 10359 10360 10360 10360 10361 10362 10363 10364 10364